Date_and_time,latitude,longitude,wind_speed,RelWindDirFrom,WindDirFrom,air_pressure,air_temperature,relative_humidity,Temp,platform_speed_wrt_ground,air_pressure_at_mean_sea_level,platform_orientation
2018-10-01 00:00,50.6304483333333,-96.9807783333333,2.3,3.2,331,1000.19,4.2,39,9.08,0.0,1027.88,255.8
2018-10-01 00:10,50.6304683333333,-96.9807416666667,2.2,3.3,332,1000.15,4.1,40,9.08,0.0,1027.87,255.8
2018-10-01 00:20,50.630425,-96.9807733333333,3.4,4.9,319,1000.24,3.9,39,9.08,0.0,1028.00,255.8
2018-10-01 00:30,50.63046,-96.9807716666667,3.3,4.6,311,1000.35,3.6,40,9.07,0.0,1028.13,255.8
2018-10-01 00:40,50.6304483333333,-96.9807633333333,3.5,5.0,301,1000.39,3.3,42,9.08,0.0,1028.17,255.8
2018-10-01 00:50,50.6304666666667,-96.9807683333333,2.2,3.5,283,1000.43,3.1,45,9.09,0.0,1028.26,255.8
2018-10-01 01:00,50.6304583333333,-96.9807633333333,2.5,4.3,299,1000.44,2.9,46,9.09,0.0,1028.29,38.0
2018-10-01 01:10,50.6304533333333,-96.98076,2.6,3.9,318,1000.40,3.0,45,9.08,0.0,1028.21,38.0
2018-10-01 01:20,50.6304533333333,-96.98076,2.4,3.7,307,1000.37,3.0,45,9.09,0.0,1028.19,38.0
2018-10-01 01:30,50.6304566666667,-96.9807616666667,3.1,3.9,280,1000.39,2.3,50,9.10,0.0,1028.24,38.0
2018-10-01 01:40,50.6304566666667,-96.9807633333333,2.8,3.4,293,1000.46,2.1,50,9.10,0.0,1028.34,38.0
2018-10-01 01:50,50.6304566666667,-96.9807633333333,3.2,4.1,288,1000.55,2.1,50,9.10,0.0,1028.44,38.0
2018-10-01 02:00,50.630455,-96.9807633333333,3.1,3.9,281,1000.55,1.7,52,9.10,0.0,1028.47,0.0
2018-10-01 02:10,50.630455,-96.9807633333333,3.6,4.2,288,1000.58,1.5,53,9.11,0.0,1028.53,0.0
2018-10-01 02:20,50.630455,-96.9807633333333,3.4,3.7,285,1000.65,1.7,50,9.11,0.0,1028.60,0.0
2018-10-01 02:30,50.630455,-96.9807633333333,3.3,4.2,279,1000.63,1.6,55,9.11,0.0,1028.60,0.0
2018-10-01 02:40,50.6304533333333,-96.9807633333333,3.5,4.6,276,1000.68,1.3,56,9.11,0.0,1028.68,0.0
2018-10-01 02:50,50.6304533333333,-96.9807633333333,5.7,9.5,266,1000.70,1.0,56,9.11,0.0,1028.73,0.0
2018-10-01 03:00,50.6304416666667,-96.9807683333333,4.8,7.4,267,1000.78,0.5,57,9.10,0.0,1028.83,113.6
2018-10-01 03:10,50.630445,-96.9807633333333,5.0,6.1,243,1000.92,-0.4,63,9.08,0.0,1029.01,113.6
2018-10-01 03:20,50.6304483333333,-96.98077,5.1,6.4,238,1001.08,-1.0,65,9.06,0.0,1029.26,113.6
2018-10-01 03:30,50.6304583333333,-96.9807766666667,3.6,5.3,241,1001.16,-0.9,65,9.01,0.0,1029.34,113.6
2018-10-01 03:40,50.6304516666667,-96.980775,2.2,3.6,247,1001.18,-0.7,63,8.98,0.0,1029.34,113.6
2018-10-01 03:50,50.6304516666667,-96.9807716666667,1.6,2.5,266,1001.16,-0.5,63,8.96,0.0,1029.33,113.6
2018-10-01 04:00,50.63045,-96.98077,3.4,4.9,275,1001.15,-0.4,62,8.95,0.0,1029.33,142.0
2018-10-01 04:10,50.6304516666667,-96.9807716666667,3.6,5.0,291,1001.10,-0.2,62,8.93,0.0,1029.26,142.0
2018-10-01 04:20,50.6304483333333,-96.9807583333333,2.3,4.6,312,1001.03,-0.1,63,8.92,0.0,1029.18,142.0
2018-10-01 04:30,50.630455,-96.9807666666667,1.8,4.2,304,1001.00,0.0,63,8.92,0.0,1029.17,142.0
2018-10-01 04:40,50.6304566666667,-96.9807616666667,2.2,4.3,284,1001.03,-0.1,63,8.91,0.0,1029.22,142.0
2018-10-01 04:50,50.6304566666667,-96.9807683333333,3.1,4.6,280,1001.07,-0.2,65,8.90,0.0,1029.30,142.0
2018-10-01 05:00,50.6304533333333,-96.98076,3.0,4.3,285,1001.06,-0.3,66,8.89,0.0,1029.33,90.0
2018-10-01 05:10,50.6304533333333,-96.9807616666667,2.5,4.3,285,1001.05,-0.3,65,8.86,0.0,1029.36,90.0
2018-10-01 05:20,50.630455,-96.980765,1.6,2.7,285,1001.09,-0.3,66,8.86,0.0,1029.39,90.0
2018-10-01 05:30,50.6304516666667,-96.98076,1.7,2.4,283,1001.06,-0.2,65,8.87,0.0,1029.34,90.0
2018-10-01 05:40,50.6304533333333,-96.9807483333333,1.8,3.0,269,1001.09,-0.2,64,8.88,0.0,1029.36,90.0
2018-10-01 05:50,50.630455,-96.98076,1.9,3.2,274,1000.99,-0.3,66,8.91,0.0,1029.25,90.0
2018-10-01 06:00,50.630455,-96.9807616666667,2.3,3.4,266,1000.92,-0.5,66,8.93,0.0,1029.19,14.5
2018-10-01 06:10,50.6304566666667,-96.9807633333333,1.5,2.2,235,1000.92,-0.5,67,8.96,0.0,1029.19,14.5
2018-10-01 06:20,50.6304683333333,-96.980765,1.7,2.4,238,1000.89,-0.7,70,8.97,0.0,1029.15,14.5
2018-10-01 06:30,50.63046,-96.9807633333333,1.5,2.4,244,1000.79,-0.7,69,8.97,0.0,1029.05,14.5
2018-10-01 06:40,50.6304583333333,-96.98076,1.7,2.4,249,1000.73,-0.7,68,8.97,0.0,1029.01,14.5
2018-10-01 06:50,50.63046,-96.98076,1.1,1.6,252,1000.70,-0.6,68,8.95,0.0,1028.98,14.5
2018-10-01 07:00,50.63042,-96.9807583333333,1.1,1.8,266,1000.61,-0.4,69,8.93,0.0,1028.87,360.0
2018-10-01 07:10,50.6304466666667,-96.9807216666667,1.3,2.0,252,1000.60,-0.4,68,8.92,0.0,1028.86,360.0
2018-10-01 07:20,50.6304566666667,-96.9807783333333,1.3,1.8,248,1000.56,-0.5,69,8.92,0.0,1028.81,360.0
2018-10-01 07:30,50.63045,-96.9807633333333,1.4,2.1,254,1000.56,-0.4,69,8.92,0.0,1028.82,360.0
2018-10-01 07:40,50.63045,-96.9807666666667,1.9,2.7,254,1000.50,-0.4,67,8.92,0.0,1028.76,360.0
2018-10-01 07:50,50.63045,-96.980765,1.8,2.4,251,1000.40,-0.4,67,8.91,0.0,1028.67,360.0
2018-10-01 08:00,50.6304516666667,-96.98075,1.3,2.1,242,1000.33,-0.5,69,8.90,0.0,1028.60,90.0
2018-10-01 08:10,50.6304483333333,-96.9807516666667,1.5,2.4,235,1000.33,-0.4,68,8.89,0.0,1028.60,90.0
2018-10-01 08:20,50.63045,-96.980755,2.4,3.4,212,1000.36,-0.2,69,8.89,0.0,1028.62,90.0
2018-10-01 08:30,50.63045,-96.9807516666667,3.0,3.9,225,1000.37,-0.2,67,8.88,0.0,1028.63,90.0
2018-10-01 08:40,50.63045,-96.980755,3.5,5.0,219,1000.36,-0.2,67,8.89,0.0,1028.62,90.0
2018-10-01 08:50,50.6304516666667,-96.9807583333333,5.0,6.9,201,1000.26,0.2,70,8.89,0.0,1028.49,90.0
2018-10-01 09:00,50.6304483333333,-96.9807733333333,5.6,8.2,201,1000.28,0.5,72,8.88,0.0,1028.49,240.8
2018-10-01 09:10,50.6304516666667,-96.98077,6.6,9.3,199,1000.34,0.5,73,8.88,0.0,1028.56,240.8
2018-10-01 09:20,50.6304516666667,-96.98077,6.8,8.9,200,1000.42,0.6,73,8.87,0.0,1028.63,240.8
2018-10-01 09:30,50.63045,-96.9807683333333,6.9,8.5,196,1000.41,0.6,73,8.86,0.0,1028.61,240.8
2018-10-01 09:40,50.630445,-96.9807516666667,7.9,10.2,194,1000.38,0.7,76,8.83,0.0,1028.58,240.8
2018-10-01 09:50,50.63046,-96.9807566666667,7.6,10.0,190,1000.33,0.5,78,8.80,0.0,1028.54,240.8
2018-10-01 10:00,50.63045,-96.9807633333333,7.4,9.6,191,1000.34,0.4,77,8.76,0.0,1028.56,360.0
2018-10-01 10:10,50.6304483333333,-96.98076,7.6,10.6,188,1000.29,0.3,76,8.71,0.0,1028.50,360.0
2018-10-01 10:20,50.63045,-96.9807633333333,7.6,9.6,188,1000.12,0.4,74,8.69,0.0,1028.31,360.0
2018-10-01 10:30,50.63045,-96.9807633333333,7.4,9.3,188,1000.10,0.6,71,8.64,0.0,1028.29,360.0
2018-10-01 10:40,50.6304533333333,-96.9807633333333,7.3,9.4,185,999.99,0.8,69,8.62,0.0,1028.15,360.0
2018-10-01 10:50,50.6304533333333,-96.980765,6.9,8.8,188,999.96,0.8,68,8.62,0.0,1028.10,360.0
2018-10-01 11:00,50.6304716666667,-96.9807766666667,7.0,9.6,188,999.85,0.9,65,8.61,0.0,1027.98,332.6
2018-10-01 11:10,50.6304616666667,-96.9807666666667,7.6,10.0,188,999.76,1.0,63,8.59,0.0,1027.87,332.6
2018-10-01 11:20,50.6304616666667,-96.9807666666667,7.8,9.3,184,999.59,1.1,62,8.57,0.0,1027.70,332.6
2018-10-01 11:30,50.630465,-96.9807666666667,7.5,9.6,188,999.60,1.1,63,8.57,0.0,1027.70,332.6
2018-10-01 11:40,50.6304616666667,-96.980775,7.4,9.0,190,999.59,1.1,62,8.57,0.0,1027.70,332.6
2018-10-01 11:50,50.6304616666667,-96.9807666666667,7.5,10.0,192,999.53,1.2,62,8.57,0.0,1027.64,332.6
2018-10-01 12:00,50.6304633333333,-96.98077,6.9,9.3,190,999.52,1.2,64,8.57,0.0,1027.63,360.0
2018-10-01 12:10,50.6304616666667,-96.98077,7.3,9.7,187,999.45,1.2,64,8.57,0.0,1027.55,360.0
2018-10-01 12:20,50.6304466666667,-96.9807633333333,7.5,9.4,185,999.36,1.3,65,8.54,0.0,1027.45,360.0
2018-10-01 12:30,50.6304483333333,-96.980755,7.5,9.5,185,999.30,1.3,67,8.49,0.0,1027.38,360.0
2018-10-01 12:40,50.63045,-96.98076,8.3,10.2,181,999.11,1.4,67,8.47,0.0,1027.17,360.0
2018-10-01 12:50,50.63045,-96.98076,8.4,10.3,181,998.97,1.6,67,8.45,0.0,1027.02,360.0
2018-10-01 13:00,50.63045,-96.9807666666667,8.0,10.2,182,998.87,1.7,68,8.44,0.0,1026.91,0.0
2018-10-01 13:10,50.6304516666667,-96.98077,7.2,9.7,185,998.88,1.9,69,8.46,0.0,1026.90,0.0
2018-10-01 13:20,50.6304516666667,-96.98077,7.5,10.9,184,998.89,2.1,68,8.46,0.0,1026.90,0.0
2018-10-01 13:30,50.6304766666667,-96.98079,7.6,10.1,186,998.86,2.2,69,8.45,0.0,1026.86,0.0
2018-10-01 13:40,50.6304683333333,-96.9807883333333,7.7,9.8,184,998.84,2.2,69,8.46,0.0,1026.84,0.0
2018-10-01 13:50,50.6304516666667,-96.9807583333333,8.7,13.3,177,998.77,2.4,67,8.46,0.0,1026.75,0.0
2018-10-01 14:00,50.6304566666667,-96.9807716666667,9.2,14.1,176,998.72,2.6,67,8.45,0.0,1026.69,360.0
2018-10-01 14:10,50.6304583333333,-96.9807666666667,7.1,9.4,190,998.73,2.4,67,8.43,0.0,1026.70,360.0
2018-10-01 14:20,50.63046,-96.980765,8.0,10.5,187,998.71,2.3,65,8.40,0.0,1026.69,360.0
2018-10-01 14:30,50.6304583333333,-96.9807683333333,8.2,10.3,188,998.60,2.2,64,8.40,0.0,1026.58,360.0
2018-10-01 14:40,50.6304566666667,-96.9807683333333,7.8,10.4,188,998.59,2.2,63,8.43,0.0,1026.56,360.0
2018-10-01 14:50,50.63046,-96.9807733333333,8.6,11.2,188,998.64,2.3,61,8.44,0.0,1026.60,360.0
2018-10-01 15:00,50.6304533333333,-96.9807733333333,8.4,11.1,185,998.57,2.4,58,8.44,0.0,1026.51,360.0
2018-10-01 15:10,50.6304516666667,-96.9807683333333,10.2,13.4,179,998.56,2.5,54,8.41,0.0,1026.49,360.0
2018-10-01 15:20,50.6304533333333,-96.980775,10.6,13.9,179,998.44,2.5,53,8.40,0.0,1026.36,360.0
2018-10-01 15:30,50.630435,-96.98079,9.9,12.6,177,998.27,2.5,53,8.39,0.0,1026.19,360.0
2018-10-01 15:40,50.6304433333333,-96.9807833333333,8.6,11.0,185,998.13,2.6,54,8.37,0.0,1026.03,360.0
2018-10-01 15:50,50.6304416666667,-96.9807816666667,7.7,10.6,184,997.98,2.7,53,8.36,0.0,1025.86,360.0
2018-10-01 16:00,50.63044,-96.98078,8.3,11.2,189,997.83,2.9,51,8.38,0.0,1025.69,229.4
2018-10-01 16:10,50.63043,-96.9807783333333,8.9,11.7,184,997.68,3.1,50,8.37,0.0,1025.54,229.4
2018-10-01 16:20,50.63043,-96.9807733333333,11.1,14.1,181,997.55,3.3,48,8.33,0.0,1025.40,229.4
2018-10-01 16:30,50.6304516666667,-96.98077,8.9,11.2,184,997.63,3.6,50,8.33,0.0,1025.47,229.4
2018-10-01 16:40,50.630435,-96.9807633333333,10.6,14.4,183,997.48,3.8,49,8.35,0.0,1025.30,229.4
2018-10-01 16:50,50.6304366666667,-96.9807633333333,12.4,15.3,182,997.31,4.0,50,8.36,0.0,1025.11,229.4
2018-10-01 17:00,50.6304316666667,-96.98077,12.3,14.7,187,997.20,4.1,51,8.37,0.0,1024.99,152.4
2018-10-01 17:10,50.6304366666667,-96.98077,11.3,15.8,192,997.07,4.2,53,8.36,0.0,1024.84,152.4
2018-10-01 17:20,50.6304233333333,-96.980795,11.3,16.7,195,997.00,4.2,53,8.35,0.0,1024.78,152.4
2018-10-01 17:30,50.6304283333333,-96.980785,11.9,15.5,181,996.87,4.3,53,8.35,0.0,1024.63,152.4
2018-10-01 17:40,50.6304316666667,-96.980785,11.9,15.7,181,996.84,4.2,54,8.36,0.0,1024.60,152.4
2018-10-01 17:50,50.6304383333333,-96.98078,11.8,15.0,170,996.73,4.2,55,8.36,0.0,1024.47,152.4
2018-10-01 18:00,50.6304383333333,-96.980775,11.9,17.3,174,996.69,4.2,54,8.35,0.0,1024.43,142.0
2018-10-01 18:10,50.6304383333333,-96.9807766666667,9.4,13.9,176,996.56,4.2,54,8.35,0.0,1024.28,142.0
2018-10-01 18:20,50.63046,-96.980785,10.9,14.8,163,996.30,4.2,54,8.36,0.0,1024.00,142.0
2018-10-01 18:30,50.6304433333333,-96.980775,10.7,14.4,164,995.95,4.3,56,8.36,0.0,1023.63,142.0
2018-10-01 18:40,50.6304533333333,-96.98078,9.7,12.4,164,995.76,4.3,56,8.37,0.0,1023.42,142.0
2018-10-01 18:50,50.63045,-96.98077,10.7,14.3,155,995.53,4.3,56,8.39,0.0,1023.18,142.0
2018-10-01 19:00,50.6304483333333,-96.9807716666667,12.3,14.7,147,995.40,4.4,55,8.40,0.0,1023.03,60.8
2018-10-01 19:10,50.630475,-96.9808066666667,12.2,14.9,147,995.20,4.4,54,8.40,0.0,1022.83,60.8
2018-10-01 19:20,50.6304466666667,-96.980775,11.7,15.2,151,995.02,4.5,53,8.40,0.0,1022.63,60.8
2018-10-01 19:30,50.6304716666667,-96.9807766666667,12.4,15.8,145,994.74,4.8,53,8.39,0.0,1022.34,60.8
2018-10-01 19:40,50.6304633333333,-96.980775,11.0,14.8,152,994.57,4.9,53,8.39,0.0,1022.16,60.8
2018-10-01 19:50,50.6304616666667,-96.9807733333333,13.1,17.4,157,994.37,5.2,51,8.40,0.0,1021.94,60.8
2018-10-01 20:00,50.630445,-96.98077,14.2,16.6,151,994.15,5.3,50,8.39,0.0,1021.70,38.0
2018-10-01 20:10,50.63045,-96.9807766666667,12.3,16.3,154,993.93,5.5,52,8.37,0.0,1021.47,38.0
2018-10-01 20:20,50.6304516666667,-96.980775,15.5,18.9,145,993.60,5.6,50,8.35,0.0,1021.12,38.0
2018-10-01 20:30,50.6304433333333,-96.9807666666667,14.7,17.3,143,993.38,5.8,51,8.35,0.0,1020.89,38.0
2018-10-01 20:40,50.6304416666667,-96.9807566666667,14.2,19.4,149,993.25,5.9,51,8.35,0.0,1020.75,38.0
2018-10-01 20:50,50.6304366666667,-96.9807516666667,16.2,20.7,150,993.03,5.9,48,8.35,0.0,1020.52,38.0
2018-10-01 21:00,50.6304416666667,-96.9807616666667,15.2,18.0,148,992.83,6.0,48,8.33,0.0,1020.31,90.0
2018-10-01 21:10,50.6304416666667,-96.9807616666667,14.6,17.8,144,992.64,6.1,49,8.33,0.0,1020.10,90.0
2018-10-01 21:20,50.6304416666667,-96.9807616666667,15.3,18.3,143,992.36,6.2,47,8.32,0.0,1019.79,90.0
2018-10-01 21:30,50.6304416666667,-96.9807683333333,16.1,19.7,144,992.10,6.3,48,8.31,0.0,1019.52,90.0
2018-10-01 21:40,50.6304433333333,-96.9807683333333,16.3,20.0,141,991.94,6.4,48,8.31,0.0,1019.33,90.0
2018-10-01 21:50,50.6304433333333,-96.98077,16.7,19.8,145,991.79,6.4,50,8.32,0.0,1019.17,90.0
2018-10-01 22:00,50.630445,-96.9807716666667,16.6,19.9,146,991.52,6.4,50,8.31,0.0,1018.89,360.0
2018-10-01 22:10,50.630445,-96.9807733333333,16.6,20.3,147,991.40,6.5,50,8.31,0.0,1018.75,360.0
2018-10-01 22:20,50.6304433333333,-96.9807733333333,16.4,19.3,149,991.37,6.6,51,8.31,0.0,1018.71,360.0
2018-10-01 22:30,50.630445,-96.9807733333333,16.2,19.7,147,991.10,6.6,52,8.30,0.0,1018.42,360.0
2018-10-01 22:40,50.630445,-96.9807733333333,17.7,21.6,147,990.64,6.7,52,8.29,0.0,1017.94,360.0
2018-10-01 22:50,50.630445,-96.9807733333333,17.2,20.8,147,990.48,6.8,53,8.29,0.0,1017.77,360.0
2018-10-01 23:00,50.630445,-96.9807733333333,16.2,20.6,148,990.39,6.9,55,8.28,0.0,1017.67,270.0
2018-10-01 23:10,50.630445,-96.9807733333333,15.6,18.6,150,990.41,6.9,54,8.28,0.0,1017.68,270.0
2018-10-01 23:20,50.6304466666667,-96.9807733333333,13.9,17.3,150,990.34,6.9,56,8.27,0.0,1017.60,270.0
2018-10-01 23:30,50.6304466666667,-96.9807533333333,13.6,16.7,151,990.24,7.0,56,8.26,0.0,1017.49,270.0
2018-10-01 23:40,50.6304483333333,-96.980785,12.0,15.7,154,990.23,7.1,57,8.27,0.0,1017.48,270.0
